Regional Weather Roundup
Issued by NWS Sioux Falls, SD

Home | Current Version | Previous Version | Text Only | Print | Product List | Glossary Off
Versions: 1 2 3 4 5 6 7 8 9 10 11 12 13 14 15 16 17 18 19 20 21 22 23 24 25 26 27 28 29 30 31 32 33 34 35 36 37 38 39 40 41 42 43 44 45 46 47 48 49 50

000
ASUS43 KFSD 311010
RWRFSD

WEATHER ROUNDUP FOR SE SOUTH DAKOTA/SW MINNESOTA/NW IOWA
NATIONAL WEATHER SERVICE SIOUX FALLS SD
500 AM CDT MON AUG 31 2015

NOTE: "FAIR" INDICATES FEW OR NO CLOUDS BELOW 12,000 FEET WITH NO
SIGNIFICANT WEATHER AND OR OBSTRUCTIONS TO VISIBILITY.


SDZ038>040-050-052>070-311100-
SOUTHEAST SOUTH DAKOTA

CITY           SKY/WX    TMP DP  RH WIND       PRES   REMARKS
BROOKINGS      CLEAR     64  61  88 S10G16    29.89R
CHAMBERLAIN    CLEAR     70  59  66 S10G24    29.77S
HURON          CLEAR     66  63  90 S12       29.77S
MADISON        FAIR      64  64 100 S14G20    29.88S
MITCHELL       CLEAR     65  63  93 SE9       29.82F
SIOUX FALLS    PTCLDY    65  63  93 S10       29.89S
WINNER         FAIR      74  55  51 S23G36    29.76S
YANKTON        CLEAR     66  63  88 S5        29.88S
$$

MNZ071-072-080-081-089-090-097-098-311100-
SOUTHWEST MINNESOTA

CITY           SKY/WX    TMP DP  RH WIND       PRES   REMARKS
FAIRMONT       CLEAR     64  59  82 S7        29.94S
JACKSON        CLEAR     64  63  94 S10       29.95R FOG
LUVERNE          N/A     63  61  94 S5        29.92S FOG
MARSHALL       CLEAR     66  61  82 SW16G22   29.86S
MONTEVIDEO     PTCLDY    63  63 100 S8        29.85F FOG
PIPESTONE      PTCLDY    66  64  94 S15G21    29.90F FOG
REDWOOD FALLS  CLEAR     64  62  93 S9        29.88S
TRACY          CLEAR     68  65  91 SW20G26   29.87S
WINDOM         CLEAR     66  63  88 S10G16    29.92S
WORTHINGTON    CLEAR     64  61  88 S14       29.93S
$$

IAZ001>003-012>014-020>022-031-032-NEZ013-014-SDZ071-311100-
NORTHWEST IOWA

CITY           SKY/WX    TMP DP  RH WIND       PRES   REMARKS
CHEROKEE       CLEAR     63  63 100 S5        29.95S FOG
DENISON        CLOUDY    64  64 100 E3        29.94S FOG
ESTHERVILLE    FOG       62  62 100 S10       29.95R VSB 1/2
LE MARS        CLEAR     66  66 100 S8        29.93S FOG
ORANGE CITY      N/A     64  64 100 S7        29.93S FOG
SHELDON        CLOUDY    66  64  94 S7        29.92S FOG
SIOUX CITY     NOT AVBL
SPENCER        CLEAR     64  61  90 S7        29.95S FOG
STORM LAKE     FOG       63  63 100 S9        29.97S VSB 1/2
$$

ABBREVIATIONS USED IN REMARKS
   TC - TEMPERATURE IN CELSIUS
  WCI - WIND CHILL INDEX
   HX - HEAT INDEX
  VSB - VISIBILITY




USA.gov is the U.S. government's official web portal to all federal, state and local government web resources and services.